| time (UTC) | temp F | wind direction | speed knots | gust knots | rain 1hr in | rain 24hr in | rain mn in | humidity % | barometer mb |
| 20260901193959 | 86 | 345 | 2.6 | 7.0 | 0.00 | 0.00 | 0.00 | 82 | 1012.8 |
| 20260901193459 | 86 | 213 | 1.7 | 7.0 | 0.00 | 0.00 | 0.00 | 83 | 1012.9 |
| 20260901192959 | 85 | 248 | 0.9 | 5.2 | 0.00 | 0.00 | 0.00 | 83 | 1012.9 |
| 20260901192459 | 85 | 315 | 1.7 | 5.2 | 0.00 | 0.00 | 0.00 | 83 | 1012.9 |
| 20260901191959 | 86 | 291 | 1.7 | 4.3 | 0.00 | 0.00 | 0.00 | 82 | 1013.0 |
| 20260901191459 | 86 | 138 | 0.9 | 6.1 | 0.00 | 0.00 | 0.00 | 82 | 1012.9 |
| 20260901190959 | 86 | 230 | 2.6 | 6.1 | 0.00 | 0.00 | 0.00 | 81 | 1013.0 |
| 20260901190459 | 87 | 244 | 1.7 | 4.3 | 0.00 | 0.00 | 0.00 | 80 | 1013.0 |
| 20260901190000 | 87 | 215 | 2.6 | 4.3 | 0.00 | 0.00 | 0.00 | 81 | 1013.0 |
| 20260901185459 | 86 | 313 | 2.6 | 4.3 | 0.00 | 0.00 | 0.00 | 83 | 1012.9 |
| 20260901184958 | 85 | 315 | 0.9 | 3.5 | 0.00 | 0.00 | 0.00 | 84 | 1013.0 |
| 20260901184458 | 85 | 314 | 0.0 | 3.5 | 0.00 | 0.00 | 0.00 | 83 | 1013.0 |
| 20260901183959 | 85 | 266 | 0.9 | 3.5 | 0.00 | 0.00 | 0.00 | 83 | 1013.0 |
| 20260901183458 | 85 | 247 | 0.9 | 3.5 | 0.00 | 0.00 | 0.00 | 83 | 1013.0 |
| 20260901182959 | 85 | 238 | 0.9 | 6.1 | 0.00 | 0.00 | 0.00 | 83 | 1013.0 |
| 20260901182459 | 85 | 212 | 1.7 | 6.1 | 0.00 | 0.00 | 0.00 | 82 | 1013.1 |
| 20260901181959 | 86 | 226 | 1.7 | 5.2 | 0.00 | 0.00 | 0.00 | 80 | 1013.1 |
| 20260901181459 | 87 | 271 | 2.6 | 7.0 | 0.00 | 0.00 | 0.00 | 80 | 1013.1 |
| 20260901180959 | 87 | 266 | 2.6 | 7.0 | 0.00 | 0.00 | 0.00 | 81 | 1013.1 |
| 20260901180458 | 86 | 250 | 2.6 | 6.1 | 0.00 | 0.00 | 0.00 | 81 | 1013.0 |
| 20260901180001 | 86 | 335 | 1.7 | 4.3 | 0.00 | 0.00 | 0.00 | 81 | 1013.0 |
| 20260901175459 | 86 | 216 | 1.7 | 3.5 | 0.00 | 0.00 | 0.00 | 82 | 1013.2 |
| 20260901174959 | 85 | 342 | 0.9 | 6.1 | 0.00 | 0.00 | 0.00 | 83 | 1013.2 |
| 20260901174459 | 85 | 250 | 2.6 | 6.1 | 0.00 | 0.00 | 0.00 | 82 | 1013.3 |
| 20260901174000 | 85 | 177 | 1.7 | 7.0 | 0.00 | 0.00 | 0.00 | 81 | 1013.3 |
| 20260901173459 | 86 | 230 | 3.5 | 6.1 | 0.00 | 0.00 | 0.00 | 82 | 1013.3 |
| 20260901172959 | 87 | 309 | 1.7 | 5.2 | 0.00 | 0.00 | 0.00 | 80 | 1013.3 |
| 20260901161500 | 84 | 240 | 0.9 | 1.7 | 0.00 | 0.00 | 0.00 | 84 | 1013.4 |
| 20260901160959 | 83 | 174 | 0.9 | 2.6 | 0.00 | 0.00 | 0.00 | 84 | 1013.4 |
| 20260901160459 | 82 | 212 | 0.0 | 1.7 | 0.00 | 0.00 | 0.00 | 84 | 1013.4 |
| 20260901160000 | 82 | 228 | 0.9 | 3.5 | 0.00 | 0.00 | 0.00 | 84 | 1013.3 |
| 20260901155459 | 83 | 200 | 0.0 | 3.5 | 0.00 | 0.00 | 0.00 | 82 | 1013.4 |
| 20260901154959 | 83 | 315 | 0.0 | 0.9 | 0.00 | 0.00 | 0.00 | 82 | 1013.4 |
| 20260901154459 | 83 | 266 | 0.0 | 1.7 | 0.00 | 0.00 | 0.00 | 84 | 1013.4 |
| 20260901150959 | 82 | 239 | 0.9 | 2.6 | 0.00 | 0.00 | 0.00 | 84 | 1013.4 |
| 20260901150459 | 82 | 230 | 0.9 | 5.2 | 0.00 | 0.00 | 0.00 | 85 | 1013.5 |
| 20260901150001 | 81 | 225 | 0.9 | 5.2 | 0.00 | 0.09 | 0.00 | 85 | 1013.6 |
| 20260901145459 | 82 | 336 | 1.7 | 3.5 | 0.00 | 0.09 | 0.00 | 84 | 1013.6 |
| 20260901144959 | 81 | 232 | 0.9 | 3.5 | 0.00 | 0.09 | 0.00 | 86 | 1013.5 |
| 20260901144459 | 80 | 199 | 0.9 | 3.5 | 0.00 | 0.09 | 0.00 | 85 | 1013.5 |
| 20260901143959 | 80 | 324 | 0.9 | 3.5 | 0.00 | 0.09 | 0.00 | 87 | 1013.6 |
| 20260901143458 | 79 | 281 | 0.9 | 3.5 | 0.00 | 0.09 | 0.00 | 86 | 1013.5 |
| 20260901142959 | 80 | 226 | 0.9 | 4.3 | 0.00 | 0.09 | 0.00 | 85 | 1013.5 |
| 20260901142500 | 81 | 232 | 1.7 | 4.3 | 0.00 | 0.09 | 0.00 | 85 | 1013.5 |
| 20260901141959 | 80 | 320 | 1.7 | 7.0 | 0.00 | 0.09 | 0.00 | 86 | 1013.4 |
| 20260901141459 | 80 | 196 | 1.7 | 7.0 | 0.00 | 0.09 | 0.00 | 86 | 1013.5 |
| 20260901140959 | 79 | 219 | 1.7 | 4.3 | 0.00 | 0.09 | 0.00 | 87 | 1013.5 |
| 20260901140500 | 79 | 295 | 1.7 | 3.5 | 0.00 | 0.09 | 0.00 | 87 | 1013.6 |
| 20260901135959 | 78 | 314 | 1.7 | 3.5 | 0.00 | 0.11 | 0.00 | 87 | 1013.4 |
| 20260901135459 | 78 | 319 | 1.7 | 2.6 | 0.00 | 0.11 | 0.00 | 88 | 1013.3 |
| 20260901134959 | 78 | 287 | 0.9 | 4.3 | 0.00 | 0.11 | 0.00 | 89 | 1013.3 |
| 20260901134500 | 77 | 234 | 0.0 | 4.3 | 0.00 | 0.11 | 0.00 | 90 | 1013.4 |
| 20260901133959 | 76 | 205 | 1.7 | 2.6 | 0.00 | 0.11 | 0.00 | 90 | 1013.5 |
| 20260901133459 | 76 | 226 | 1.7 | 2.6 | 0.00 | 0.11 | 0.00 | 91 | 1013.5 |
| 20260901132959 | 76 | 222 | 0.9 | 4.3 | 0.00 | 0.11 | 0.00 | 91 | 1013.5 |
| 20260901132459 | 75 | 223 | 1.7 | 4.3 | 0.00 | 0.11 | 0.00 | 91 | 1013.5 |
| 20260901131959 | 75 | 197 | 1.7 | 3.5 | 0.00 | 0.11 | 0.00 | 92 | 1013.5 |
| 20260901131459 | 74 | 221 | 0.9 | 3.5 | 0.00 | 0.11 | 0.00 | 92 | 1013.5 |
| 20260901130959 | 74 | 199 | 0.9 | 5.2 | 0.00 | 0.11 | 0.00 | 92 | 1013.5 |
| 20260901130459 | 74 | 241 | 0.9 | 5.2 | 0.00 | 0.11 | 0.00 | 92 | 1013.3 |
| 20260901130002 | 73 | 233 | 1.7 | 3.5 | 0.00 | 0.11 | 0.00 | 92 | 1013.4 |
| 20260901125458 | 73 | 225 | 0.9 | 2.6 | 0.00 | 0.11 | 0.00 | 92 | 1013.5 |
| 20260901124959 | 71 | 223 | 0.9 | 2.6 | 0.00 | 0.11 | 0.00 | 92 | 1013.5 |
| 20260901124459 | 70 | 199 | 0.9 | 1.7 | 0.00 | 0.11 | 0.00 | 92 | 1013.6 |
| 20260901123958 | 69 | 276 | 0.0 | 0.9 | 0.00 | 0.11 | 0.00 | 92 | 1013.4 |
| 20260901123459 | 69 | 276 | 0.0 | 0.9 | 0.00 | 0.11 | 0.00 | 92 | 1013.5 |
| 20260901122959 | 68 | 276 | 0.0 | 0.0 | 0.00 | 0.11 | 0.00 | 91 | 1013.3 |
| 20260901122459 | 68 | 276 | 0.0 | 0.0 | 0.00 | 0.11 | 0.00 | 91 | 1013.5 |
| 20260901121959 | 68 | 276 | 0.0 | 0.0 | 0.00 | 0.11 | 0.00 | 91 | 1013.5 |
| 20260901121458 | 68 | 276 | 0.0 | 0.0 | 0.00 | 0.11 | 0.00 | 91 | 1013.4 |
| 20260901120958 | 67 | 276 | 0.0 | 0.0 | 0.00 | 0.11 | 0.00 | 91 | 1013.3 |
| 20260901120459 | 67 | 276 | 0.0 | 0.0 | 0.00 | 0.11 | 0.00 | 91 | 1013.1 |
| 20260901120000 | 67 | 276 | 0.0 | 0.0 | 0.00 | 0.11 | 0.00 | 91 | 1013.0 |
| 20260901115459 | 67 | 276 | 0.0 | 0.0 | 0.00 | 0.11 | 0.00 | 91 | 1013.0 |
| 20260901114959 | 67 | 276 | 0.0 | 0.0 | 0.00 | 0.11 | 0.00 | 91 | 1013.0 |
| 20260901114459 | 67 | 276 | 0.0 | 0.0 | 0.00 | 0.11 | 0.00 | 91 | 1012.9 |
| 20260901113958 | 67 | 276 | 0.0 | 0.0 | 0.00 | 0.11 | 0.00 | 91 | 1012.8 |
| 20260901113500 | 67 | 276 | 0.0 | 0.0 | 0.00 | 0.11 | 0.00 | 91 | 1012.7 |
| 20260901112958 | 67 | 276 | 0.0 | 0.0 | 0.00 | 0.11 | 0.00 | 91 | 1012.6 |
| 20260901112459 | 67 | 276 | 0.0 | 0.0 | 0.00 | 0.11 | 0.00 | 91 | 1012.7 |
| 20260901111959 | 67 | 276 | 0.0 | 0.0 | 0.00 | 0.11 | 0.00 | 91 | 1012.6 |
| 20260901111459 | 67 | 276 | 0.0 | 0.0 | 0.00 | 0.11 | 0.00 | 91 | 1012.6 |
| 20260901110959 | 67 | 276 | 0.0 | 0.0 | 0.00 | 0.11 | 0.00 | 91 | 1012.6 |
| 20260901110459 | 68 | 276 | 0.0 | 0.0 | 0.00 | 0.11 | 0.00 | 90 | 1012.6 |
| 20260901105959 | 68 | 276 | 0.0 | 0.0 | 0.00 | 0.11 | 0.00 | 90 | 1012.5 |
| 20260901105459 | 68 | 276 | 0.0 | 0.0 | 0.00 | 0.11 | 0.00 | 90 | 1012.5 |
| 20260901104959 | 68 | 276 | 0.0 | 0.0 | 0.00 | 0.11 | 0.00 | 90 | 1012.5 |
| 20260901104458 | 68 | 276 | 0.0 | 0.0 | 0.00 | 0.11 | 0.00 | 90 | 1012.4 |
| 20260901103958 | 68 | 276 | 0.0 | 0.0 | 0.00 | 0.11 | 0.00 | 90 | 1012.4 |
| 20260901103459 | 68 | 276 | 0.0 | 0.0 | 0.00 | 0.11 | 0.00 | 90 | 1012.4 |
| 20260901102959 | 68 | 276 | 0.0 | 0.0 | 0.00 | 0.11 | 0.00 | 90 | 1012.5 |
| 20260901102458 | 68 | 276 | 0.0 | 0.0 | 0.00 | 0.11 | 0.00 | 90 | 1012.5 |
| 20260901101959 | 68 | 276 | 0.0 | 0.0 | 0.00 | 0.11 | 0.00 | 90 | 1012.5 |
| 20260901101458 | 68 | 276 | 0.0 | 0.9 | 0.00 | 0.11 | 0.00 | 90 | 1012.5 |
| 20260901100959 | 69 | 276 | 0.0 | 0.9 | 0.00 | 0.11 | 0.00 | 91 | 1012.5 |
| 20260901100458 | 69 | 276 | 0.0 | 0.0 | 0.00 | 0.11 | 0.00 | 90 | 1012.5 |
| 20260901100001 | 69 | 276 | 0.0 | 0.0 | 0.00 | 0.11 | 0.00 | 90 | 1012.5 |
| 20260901095459 | 69 | 276 | 0.0 | 0.0 | 0.00 | 0.11 | 0.00 | 90 | 1012.5 |
| 20260901094959 | 69 | 276 | 0.0 | 0.0 | 0.00 | 0.11 | 0.00 | 90 | 1012.4 |
| 20260901094459 | 69 | 276 | 0.0 | 0.0 | 0.00 | 0.11 | 0.00 | 90 | 1012.3 |
| 20260901093959 | 69 | 276 | 0.0 | 0.0 | 0.00 | 0.11 | 0.00 | 90 | 1012.4 |
| 20260901093459 | 69 | 276 | 0.0 | 0.0 | 0.00 | 0.11 | 0.00 | 90 | 1012.4 |
| 20260901092959 | 69 | 276 | 0.0 | 0.0 | 0.00 | 0.11 | 0.00 | 90 | 1012.4 |
| 20260901092458 | 69 | 276 | 0.0 | 0.0 | 0.00 | 0.11 | 0.00 | 90 | 1012.4 |
| 20260901091958 | 69 | 276 | 0.0 | 0.0 | 0.00 | 0.11 | 0.00 | 90 | 1012.4 |
| 20260901091458 | 69 | 276 | 0.0 | 0.0 | 0.00 | 0.11 | 0.00 | 90 | 1012.4 |
| 20260901090958 | 70 | 276 | 0.0 | 0.0 | 0.00 | 0.11 | 0.00 | 90 | 1012.4 |
| 20260901090459 | 70 | 276 | 0.0 | 0.0 | 0.00 | 0.11 | 0.00 | 90 | 1012.4 |
| 20260901090000 | 70 | 276 | 0.0 | 0.0 | 0.00 | 0.11 | 0.00 | 90 | 1012.4 |
| 20260901085459 | 70 | 276 | 0.0 | 0.0 | 0.00 | 0.11 | 0.00 | 90 | 1012.4 |
| 20260901084959 | 70 | 276 | 0.0 | 0.0 | 0.00 | 0.11 | 0.00 | 90 | 1012.4 |
| 20260901084458 | 70 | 276 | 0.0 | 0.0 | 0.00 | 0.11 | 0.00 | 90 | 1012.3 |
| 20260901083959 | 70 | 276 | 0.0 | 0.0 | 0.00 | 0.11 | 0.00 | 90 | 1012.4 |
| 20260901083458 | 70 | 276 | 0.0 | 0.0 | 0.00 | 0.11 | 0.00 | 90 | 1012.4 |
| 20260901082959 | 70 | 276 | 0.0 | 0.0 | 0.00 | 0.11 | 0.00 | 90 | 1012.4 |
| 20260901082458 | 70 | 276 | 0.0 | 0.0 | 0.00 | 0.11 | 0.00 | 90 | 1012.4 |
| 20260901081958 | 70 | 276 | 0.0 | 0.0 | 0.00 | 0.11 | 0.00 | 90 | 1012.4 |
| 20260901081458 | 70 | 276 | 0.0 | 0.0 | 0.00 | 0.11 | 0.00 | 90 | 1012.5 |
| 20260901080958 | 70 | 276 | 0.0 | 0.0 | 0.00 | 0.11 | 0.00 | 90 | 1012.3 |
| 20260901080458 | 70 | 276 | 0.0 | 0.0 | 0.00 | 0.11 | 0.00 | 90 | 1012.3 |
| 20260901075958 | 70 | 276 | 0.0 | 0.0 | 0.00 | 0.11 | 0.00 | 90 | 1012.3 |
| 20260901075459 | 70 | 276 | 0.0 | 0.0 | 0.00 | 0.11 | 0.00 | 90 | 1012.3 |
| 20260901074958 | 70 | 276 | 0.0 | 0.0 | 0.00 | 0.11 | 0.00 | 89 | 1012.2 |
| 20260901063958 | 70 | 303 | 0.0 | 0.0 | 0.00 | 0.11 | 0.00 | 88 | 1012.1 |
| 20260901063458 | 70 | 303 | 0.0 | 0.0 | 0.00 | 0.11 | 0.00 | 88 | 1012.3 |
| 20260901062958 | 71 | 303 | 0.0 | 0.0 | 0.00 | 0.11 | 0.00 | 88 | 1012.2 |
| 20260901062458 | 71 | 303 | 0.0 | 0.0 | 0.00 | 0.11 | 0.00 | 88 | 1012.2 |
| 20260901061958 | 71 | 303 | 0.0 | 0.0 | 0.00 | 0.11 | 0.00 | 88 | 1012.2 |
| 20260901061458 | 71 | 303 | 0.0 | 0.0 | 0.00 | 0.11 | 0.00 | 88 | 1012.2 |
| 20260901060959 | 71 | 303 | 0.0 | 0.0 | 0.00 | 0.11 | 0.00 | 88 | 1012.2 |
| 20260901053459 | 72 | 303 | 0.0 | 0.9 | 0.00 | 0.11 | 0.00 | 88 | 1012.5 |
| 20260901052958 | 72 | 320 | 0.0 | 0.0 | 0.00 | 0.11 | 0.00 | 88 | 1012.5 |
| 20260901052459 | 72 | 320 | 0.0 | 1.7 | 0.00 | 0.11 | 0.00 | 88 | 1012.5 |
| 20260901052000 | 72 | 320 | 0.0 | 1.7 | 0.00 | 0.11 | 0.00 | 88 | 1012.4 |
| 20260901051458 | 72 | 299 | 0.0 | 0.9 | 0.00 | 0.11 | 0.00 | 87 | 1012.5 |
| 20260901050958 | 72 | 299 | 0.0 | 0.9 | 0.00 | 0.11 | 0.00 | 87 | 1012.4 |
| 20260901050458 | 72 | 299 | 0.0 | 0.9 | 0.00 | 0.11 | 0.00 | 87 | 1012.4 |
| 20260901045959 | 72 | 299 | 0.0 | 0.9 | 0.00 | 0.11 | 0.00 | 86 | 1012.4 |
| 20260901045459 | 72 | 299 | 0.0 | 0.0 | 0.00 | 0.11 | 0.00 | 86 | 1012.5 |
| 20260901044958 | 73 | 299 | 0.0 | 0.0 | 0.00 | 0.11 | 0.00 | 86 | 1012.5 |
| 20260901044459 | 73 | 299 | 0.0 | 0.0 | 0.00 | 0.11 | 0.00 | 86 | 1012.4 |
| 20260901043959 | 73 | 299 | 0.0 | 0.0 | 0.00 | 0.11 | 0.00 | 86 | 1012.4 |
| 20260901043458 | 73 | 299 | 0.0 | 0.0 | 0.00 | 0.11 | 0.00 | 86 | 1012.4 |
| 20260901042959 | 73 | 299 | 0.0 | 0.0 | 0.00 | 0.11 | 0.00 | 86 | 1012.4 |
| 20260901042459 | 73 | 299 | 0.0 | 0.0 | 0.00 | 0.11 | 0.00 | 86 | 1012.4 |
| 20260901041958 | 74 | 299 | 0.0 | 0.0 | 0.00 | 0.11 | 0.00 | 86 | 1012.5 |
| 20260901041459 | 74 | 299 | 0.0 | 0.0 | 0.00 | 0.11 | 0.00 | 86 | 1012.5 |
| 20260901040959 | 74 | 299 | 0.0 | 0.9 | 0.00 | 0.11 | 0.00 | 86 | 1012.5 |
| 20260901040459 | 74 | 299 | 0.0 | 0.9 | 0.00 | 0.11 | 0.00 | 86 | 1012.6 |
| 20260901040005 | 74 | 299 | 0.0 | 0.0 | 0.00 | 0.11 | 0.00 | 86 | 1012.6 |
| 20260901035459 | 74 | 299 | 0.0 | 0.0 | 0.00 | 0.11 | 0.11 | 86 | 1012.7 |
| 20260901035000 | 75 | 299 | 0.0 | 0.0 | 0.00 | 0.11 | 0.11 | 86 | 1012.5 |
| 20260901034459 | 75 | 299 | 0.0 | 0.9 | 0.00 | 0.11 | 0.11 | 86 | 1012.6 |
| 20260901034000 | 75 | 349 | 0.0 | 0.9 | 0.00 | 0.11 | 0.11 | 86 | 1012.7 |
| 20260901033459 | 75 | 349 | 0.0 | 0.9 | 0.00 | 0.11 | 0.11 | 86 | 1012.6 |
| 20260901032959 | 75 | 349 | 0.0 | 1.7 | 0.00 | 0.11 | 0.11 | 86 | 1012.6 |
| 20260901032459 | 75 | 221 | 0.0 | 1.7 | 0.00 | 0.11 | 0.11 | 85 | 1012.4 |
| 20260901031959 | 75 | 228 | 0.0 | 0.9 | 0.00 | 0.11 | 0.11 | 85 | 1012.5 |
| 20260901031459 | 76 | 227 | 0.0 | 0.9 | 0.00 | 0.11 | 0.11 | 85 | 1012.5 |
| 20260901031000 | 76 | 226 | 0.0 | 1.7 | 0.00 | 0.11 | 0.11 | 85 | 1012.7 |
| 20260901030500 | 76 | 232 | 0.0 | 1.7 | 0.00 | 0.11 | 0.11 | 85 | 1012.6 |
| 20260901030000 | 76 | 290 | 0.0 | 1.7 | 0.00 | 0.11 | 0.11 | 85 | 1012.6 |
| 20260901025500 | 76 | 307 | 0.0 | 0.9 | 0.00 | 0.11 | 0.11 | 85 | 1012.7 |
| 20260901021959 | 76 | 286 | 2.6 | 7.8 | 0.00 | 0.11 | 0.11 | 85 | 1012.3 |
| 20260901021459 | 76 | 242 | 0.0 | 3.5 | 0.00 | 0.11 | 0.11 | 85 | 1012.4 |
| 20260901020959 | 76 | 243 | 0.0 | 2.6 | 0.00 | 0.11 | 0.11 | 84 | 1012.6 |
| 20260901020459 | 76 | 207 | 0.9 | 2.6 | 0.00 | 0.11 | 0.11 | 84 | 1012.5 |
| 20260901015959 | 77 | 280 | 0.0 | 0.9 | 0.00 | 0.11 | 0.11 | 84 | 1012.5 |
| 20260901015459 | 77 | 327 | 0.0 | 0.9 | 0.00 | 0.11 | 0.11 | 84 | 1012.4 |
| 20260901014959 | 77 | 226 | 0.0 | 0.9 | 0.00 | 0.11 | 0.11 | 84 | 1012.4 |
| 20260901014459 | 77 | 225 | 0.0 | 0.9 | 0.00 | 0.11 | 0.11 | 84 | 1012.4 |
| 20260901014000 | 77 | 245 | 0.0 | 0.9 | 0.00 | 0.11 | 0.11 | 84 | 1012.5 |
| 20260901013459 | 77 | 245 | 0.0 | 1.7 | 0.00 | 0.11 | 0.11 | 84 | 1012.3 |
| 20260901012959 | 77 | 245 | 0.0 | 2.6 | 0.00 | 0.11 | 0.11 | 84 | 1012.4 |
| 20260901012459 | 77 | 288 | 0.9 | 2.6 | 0.00 | 0.11 | 0.11 | 84 | 1012.4 |
| 20260901011958 | 77 | 313 | 0.9 | 2.6 | 0.00 | 0.11 | 0.11 | 83 | 1012.4 |
| 20260901011459 | 77 | 234 | 0.9 | 2.6 | 0.00 | 0.11 | 0.11 | 83 | 1012.3 |
| 20260901010959 | 77 | 262 | 0.0 | 2.6 | 0.00 | 0.11 | 0.11 | 83 | 1012.3 |
| 20260901010459 | 78 | 296 | 1.7 | 3.5 | 0.00 | 0.11 | 0.11 | 83 | 1012.1 |
| 20260901010000 | 78 | 201 | 0.9 | 3.5 | 0.00 | 0.11 | 0.11 | 83 | 1012.2 |
| 20260901005459 | 78 | 209 | 0.0 | 2.6 | 0.00 | 0.11 | 0.11 | 83 | 1012.2 |
| 20260901004959 | 78 | 192 | 0.9 | 2.6 | 0.00 | 0.11 | 0.11 | 83 | 1012.2 |
| 20260901004459 | 78 | 238 | 0.9 | 3.5 | 0.00 | 0.11 | 0.11 | 83 | 1012.3 |
| 20260901003959 | 78 | 200 | 1.7 | 3.5 | 0.00 | 0.11 | 0.11 | 83 | 1012.3 |
| 20260901003459 | 78 | 296 | 0.0 | 4.3 | 0.00 | 0.11 | 0.11 | 83 | 1012.3 |
| 20260901002959 | 78 | 251 | 1.7 | 2.6 | 0.00 | 0.11 | 0.11 | 83 | 1012.3 |
| 20260901002459 | 78 | 266 | 0.9 | 3.5 | 0.00 | 0.11 | 0.11 | 83 | 1012.3 |
| 20260901001959 | 78 | 241 | 1.7 | 3.5 | 0.00 | 0.11 | 0.11 | 83 | 1012.3 |
| 20260901001459 | 78 | 212 | 0.9 | 4.3 | 0.00 | 0.11 | 0.11 | 83 | 1012.2 |
| 20260901001000 | 78 | 343 | 1.7 | 5.2 | 0.00 | 0.11 | 0.11 | 83 | 1012.1 |
| 20260901000459 | 78 | 219 | 0.9 | 2.6 | 0.00 | 0.11 | 0.11 | 83 | 1012.1 |
| 20260901000001 | 78 | 230 | 0.9 | 4.3 | 0.00 | 0.11 | 0.11 | 83 | 1012.0 |
| 20260831235500 | 78 | 197 | 1.7 | 4.3 | 0.00 | 0.11 | 0.11 | 84 | 1011.9 |
| 20260831235000 | 78 | 207 | 0.9 | 3.5 | 0.00 | 0.11 | 0.11 | 84 | 1011.8 |
| 20260831234501 | 78 | 213 | 0.9 | 2.6 | 0.00 | 0.11 | 0.11 | 84 | 1011.9 |
| 20260831234000 | 79 | 180 | 0.0 | 2.6 | 0.00 | 0.11 | 0.11 | 84 | 1011.9 |
| 20260831233504 | 79 | 244 | 0.0 | 0.9 | 0.00 | 0.11 | 0.11 | 84 | 1011.9 |
| 20260831233000 | 79 | 222 | 0.0 | 0.9 | 0.00 | 0.11 | 0.11 | 84 | 1011.8 |
| 20260831232500 | 79 | 222 | 0.0 | 0.0 | 0.00 | 0.11 | 0.11 | 84 | 1011.8 |
| 20260831231959 | 79 | 222 | 0.0 | 2.6 | 0.00 | 0.11 | 0.11 | 84 | 1011.9 |
| 20260831231500 | 79 | 222 | 0.0 | 2.6 | 0.00 | 0.11 | 0.11 | 83 | 1012.0 |
| 20260831231000 | 79 | 185 | 0.0 | 2.6 | 0.00 | 0.11 | 0.11 | 83 | 1012.0 |
| 20260831230501 | 79 | 205 | 0.9 | 2.6 | 0.00 | 0.11 | 0.11 | 83 | 1011.9 |
| 20260831225959 | 79 | 232 | 0.0 | 2.6 | 0.00 | 0.11 | 0.11 | 83 | 1011.9 |
| 20260831225459 | 79 | 234 | 0.9 | 2.6 | 0.00 | 0.11 | 0.11 | 83 | 1011.8 |
| 20260831224959 | 80 | 174 | 0.0 | 2.6 | 0.00 | 0.11 | 0.11 | 82 | 1011.7 |
| 20260831224459 | 80 | 196 | 0.9 | 3.5 | 0.00 | 0.11 | 0.11 | 82 | 1011.8 |
| 20260831224000 | 80 | 276 | 0.0 | 5.2 | 0.00 | 0.11 | 0.11 | 82 | 1011.6 |
| 20260831223459 | 80 | 192 | 0.9 | 3.5 | 0.00 | 0.11 | 0.11 | 81 | 1011.6 |
| 20260831215459 | 82 | 260 | 2.6 | 10.4 | 0.00 | 0.11 | 0.11 | 75 | 1011.7 |
| 20260831214959 | 82 | 205 | 1.7 | 7.0 | 0.00 | 0.11 | 0.11 | 75 | 1011.8 |
| 20260831214458 | 82 | 203 | 1.7 | 7.0 | 0.00 | 0.11 | 0.11 | 76 | 1011.7 |
| 20260831213959 | 82 | 184 | 4.3 | 7.8 | 0.00 | 0.11 | 0.11 | 74 | 1011.7 |
| 20260831213500 | 82 | 159 | 0.9 | 7.0 | 0.00 | 0.11 | 0.11 | 78 | 1011.8 |
| 20260831212959 | 82 | 30 | 0.9 | 7.0 | 0.00 | 0.11 | 0.11 | 75 | 1011.8 |
| 20260831212459 | 82 | 297 | 1.7 | 6.1 | 0.00 | 0.11 | 0.11 | 75 | 1011.7 |
| 20260831211802 | 82 | 176 | 2.6 | 8.7 | 0.00 | 0.11 | 0.11 | 74 | 1011.7 |
| 20260831211303 | 82 | 196 | 1.7 | 7.0 | 0.00 | 0.11 | 0.11 | 75 | 1011.7 |
| 20260831210803 | 82 | 151 | 2.6 | 9.6 | 0.00 | 0.11 | 0.11 | 74 | 1011.7 |
| 20260831210302 | 82 | 228 | 3.5 | 9.6 | 0.00 | 0.11 | 0.11 | 73 | 1011.7 |
| 20260831205802 | 82 | 187 | 2.6 | 7.8 | 0.00 | 0.11 | 0.11 | 74 | 1011.8 |
| 20260831205305 | 82 | 207 | 2.6 | 8.7 | 0.00 | 0.11 | 0.11 | 73 | 1011.8 |